Weather History for Denison, IA

Change the Weather History Date:

Saturday, November 10, 2012

  Actual Average Record
Temperature  
Mean Temperature 62 °F -  
Max Temperature 77 °F 48 °F 77 °F (2012)
Min Temperature 48 °F 30 °F 19 °F (1996)
Degree Days  
Heating Degree Days 2    
Growing Degree Days 12 (Base 50)    
Moisture  
Dew Point 54 °F    
Average Humidity 71    
Maximum Humidity 100    
Minimum Humidity 44    
Precipitation  
Precipitation 0.07 in - - ()
Sea Level Pressure  
Sea Level Pressure 29.57 in    
Wind  
Wind Speed 15 mph (South)    
Max Wind Speed 31 mph    
Max Gust Speed 45 mph    
Visibility 10 miles    
Events Rain    
Averages and records for this station are not official NWS values.
T = Trace of Precipitation, MM = Missing Value Source: NWS Daily Summary

Daily Weather History Graph

Daily Weather History Graph

Search for Another Location

Airport:

Trip Planner

Search our weather history database for the weather conditions in past years. The results will help you decide how hot, cold, wet, or windy it might be!

Date:

Astronomy

Nov. 10, 2012 Rise Set
Actual Time 7:05 AM CST 5:04 PM CST
Civil Twilight 6:36 AM CST 5:34 PM CST
Nautical Twilight 6:02 AM CST 6:07 PM CST
Astronomical Twilight 5:29 AM CST 6:40 PM CST
Moon 3:08 AM CST (11/10) 2:54 PM CST (11/10)
Length of Visible Light 10h 58m
Length of Day
9h 58m
Waning Crescent, 14% of the Moon is Illuminated
Nov 10
Waning Crescent
Nov 13
New
Nov 20
First Quarter
Nov 28
Full
Dec 6
Last Quarter

Hourly Weather History & Observations

Time (CST) Temp. Dew Point Humidity Pressure Visibility Wind Dir Wind Speed Gust Speed Precip Events Conditions
12:15 AM 55.4 °F 51.8 °F 88% 29.67 in 10.0 mi SE 8.1 mph 15.0 mph N/A   Clear
12:35 AM 57.2 °F 53.6 °F 88% 29.66 in - SE 9.2 mph 16.1 mph N/A   Unknown
12:55 AM 59.0 °F 55.4 °F 88% 29.66 in 10.0 mi SE 8.1 mph - N/A   Clear
1:15 AM 59.0 °F 55.4 °F 88% 29.65 in 10.0 mi SE 9.2 mph - N/A   Partly Cloudy
1:35 AM 59.0 °F 55.4 °F 88% 29.65 in 10.0 mi SSE 9.2 mph 17.3 mph N/A   Scattered Clouds
1:55 AM 59.0 °F 55.4 °F 88% 29.64 in 10.0 mi SSE 11.5 mph - N/A   Partly Cloudy
2:15 AM 59.0 °F 57.2 °F 94% 29.64 in 10.0 mi SSE 11.5 mph - N/A   Clear
2:35 AM 59.0 °F 55.4 °F 88% 29.63 in 10.0 mi SSE 10.4 mph 20.7 mph N/A   Clear
2:55 AM 59.0 °F 55.4 °F 88% 29.62 in 10.0 mi SSE 10.4 mph - N/A   Clear
3:15 AM 59.0 °F 55.4 °F 88% 29.62 in 10.0 mi South 9.2 mph 19.6 mph N/A   Clear
3:35 AM 59.0 °F 55.4 °F 88% 29.61 in 10.0 mi SSE 10.4 mph 17.3 mph N/A   Clear
3:55 AM 59.0 °F 55.4 °F 88% 29.60 in 10.0 mi SSE 10.4 mph 16.1 mph N/A   Clear
4:15 AM 59.0 °F 55.4 °F 88% 29.60 in 10.0 mi South 6.9 mph - N/A   Clear
4:35 AM 59.0 °F 55.4 °F 88% 29.60 in 10.0 mi South 10.4 mph 17.3 mph N/A   Clear
4:55 AM 59.0 °F 55.4 °F 88% 29.59 in 10.0 mi South 15.0 mph - N/A   Clear
5:15 AM 59.0 °F 55.4 °F 88% 29.59 in 10.0 mi South 16.1 mph 24.2 mph N/A   Clear
6:35 AM 59.0 °F 55.4 °F 88% 29.59 in 10.0 mi South 17.3 mph 23.0 mph N/A   Clear
6:55 AM 59.0 °F 53.6 °F 82% 29.59 in 10.0 mi South 15.0 mph 20.7 mph N/A   Clear
7:15 AM 59.0 °F 53.6 °F 82% 29.59 in 10.0 mi South 16.1 mph 23.0 mph N/A   Clear
7:35 AM 59.0 °F 53.6 °F 82% 29.59 in 10.0 mi South 15.0 mph 23.0 mph N/A   Clear
7:55 AM 60.8 °F 53.6 °F 77% 29.59 in 10.0 mi South 18.4 mph 25.3 mph N/A   Clear
8:15 AM 60.8 °F 55.4 °F 82% 29.59 in 10.0 mi South 16.1 mph - N/A   Clear
8:35 AM 62.6 °F 55.4 °F 77% 29.59 in 10.0 mi South 17.3 mph 24.2 mph N/A   Clear
8:55 AM 64.4 °F 55.4 °F 73% 29.60 in 10.0 mi South 17.3 mph 26.5 mph N/A   Clear
9:15 AM 64.4 °F 55.4 °F 73% 29.59 in 10.0 mi SSW 17.3 mph 26.5 mph N/A   Clear
9:35 AM 66.2 °F 53.6 °F 64% 29.59 in - SSW 23.0 mph 31.1 mph N/A   Clear
9:55 AM 68.0 °F 53.6 °F 60% 29.60 in 10.0 mi SSW 19.6 mph 31.1 mph N/A   Clear
10:15 AM 69.8 °F 51.8 °F 53% 29.60 in 10.0 mi SSW 24.2 mph 33.4 mph N/A   Clear
10:35 AM 69.8 °F 51.8 °F 53% 29.59 in 10.0 mi SSW 17.3 mph 28.8 mph N/A   Clear
10:55 AM 71.6 °F 51.8 °F 50% 29.59 in 10.0 mi SSW 18.4 mph 27.6 mph N/A   Clear
11:15 AM 71.6 °F 51.8 °F 50% 29.59 in 10.0 mi SSW 17.3 mph 31.1 mph N/A   Clear
11:35 AM 73.4 °F 51.8 °F 47% 29.58 in 10.0 mi SSW 16.1 mph 28.8 mph N/A   Clear
11:55 AM 73.4 °F 51.8 °F 47% 29.56 in 10.0 mi SW 17.3 mph 33.4 mph N/A   Clear
12:15 PM 75.2 °F 51.8 °F 44% 29.57 in 9.0 mi SSW 23.0 mph 31.1 mph N/A   Clear
12:35 PM 75.2 °F 53.6 °F 47% 29.56 in 9.0 mi SSW 21.9 mph 31.1 mph N/A   Clear
12:55 PM 75.2 °F 53.6 °F 47% 29.55 in 10.0 mi SSW 23.0 mph 33.4 mph N/A   Clear
1:15 PM 77.0 °F 53.6 °F 44% 29.54 in 9.0 mi South 17.3 mph 31.1 mph N/A   Clear
1:35 PM 75.2 °F 55.4 °F 50% 29.54 in 10.0 mi South 23.0 mph 34.5 mph N/A   Partly Cloudy
1:55 PM 73.4 °F 55.4 °F 53% 29.52 in 10.0 mi South 28.8 mph 40.3 mph N/A   Partly Cloudy
2:15 PM 73.4 °F 57.2 °F 57% 29.51 in 10.0 mi South 26.5 mph 34.5 mph N/A   Clear
2:35 PM 73.4 °F 57.2 °F 57% 29.51 in 10.0 mi South 21.9 mph 40.3 mph N/A   Clear
2:55 PM 73.4 °F 55.4 °F 53% 29.52 in 10.0 mi South 25.3 mph 36.8 mph N/A   Clear
3:15 PM 71.6 °F 55.4 °F 57% 29.51 in 10.0 mi South 25.3 mph 41.4 mph N/A   Clear
3:35 PM 71.6 °F 55.4 °F 57% 29.51 in 10.0 mi South 27.6 mph 40.3 mph N/A   Clear
3:55 PM 71.6 °F 55.4 °F 57% 29.51 in 10.0 mi South 27.6 mph 40.3 mph N/A   Clear
4:15 PM 71.6 °F 55.4 °F 57% 29.51 in 10.0 mi South 29.9 mph 40.3 mph N/A   Clear
4:35 PM 71.6 °F 55.4 °F 57% 29.51 in 10.0 mi South 23.0 mph 38.0 mph N/A   Clear
4:55 PM 69.8 °F 55.4 °F 60% 29.50 in 10.0 mi South 24.2 mph 34.5 mph N/A   Clear
5:15 PM 69.8 °F 57.2 °F 64% 29.51 in 10.0 mi South 21.9 mph 34.5 mph N/A   Clear
5:35 PM 68.0 °F 57.2 °F 68% 29.51 in 10.0 mi South 21.9 mph 31.1 mph N/A   Clear
5:55 PM 68.0 °F 57.2 °F 68% 29.50 in 10.0 mi South 28.8 mph 39.1 mph N/A   Partly Cloudy
6:15 PM 68.0 °F 55.4 °F 64% 29.50 in 10.0 mi South 28.8 mph 38.0 mph N/A   Partly Cloudy
6:35 PM 68.0 °F 55.4 °F 64% 29.49 in 10.0 mi South 27.6 mph 38.0 mph N/A   Partly Cloudy
6:55 PM 68.0 °F 55.4 °F 64% 29.49 in 10.0 mi South 27.6 mph 44.9 mph N/A   Partly Cloudy
7:15 PM 66.2 °F 55.4 °F 68% 29.49 in 10.0 mi South 20.7 mph 35.7 mph N/A   Mostly Cloudy
7:35 PM 66.2 °F 55.4 °F 68% 29.48 in 10.0 mi South 18.4 mph 36.8 mph N/A   Overcast
7:55 PM 66.2 °F 55.4 °F 68% 29.49 in 10.0 mi South 20.7 mph 32.2 mph N/A   Overcast
8:15 PM 66.2 °F 55.4 °F 68% 29.47 in 10.0 mi South 24.2 mph 35.7 mph N/A   Overcast
8:35 PM 66.2 °F 55.4 °F 68% 29.48 in 10.0 mi South 28.8 mph 41.4 mph N/A   Overcast
8:55 PM 66.2 °F 55.4 °F 68% 29.49 in 10.0 mi South 28.8 mph 39.1 mph N/A   Mostly Cloudy
9:15 PM 66.2 °F 55.4 °F 68% 29.51 in 10.0 mi SSW 31.1 mph 39.1 mph N/A   Overcast
9:35 PM 64.4 °F 51.8 °F 64% 29.58 in 10.0 mi West 25.3 mph 36.8 mph N/A   Overcast
9:55 PM 57.2 °F 51.8 °F 82% 29.61 in 10.0 mi West 20.7 mph 38.0 mph N/A Rain Light Rain
10:35 PM 51.8 °F 48.2 °F 88% 29.63 in 4.0 mi WSW 8.1 mph 20.7 mph N/A Rain Rain
10:55 PM 50.0 °F 48.2 °F 94% 29.63 in 3.0 mi WSW 4.6 mph 12.7 mph 0.06 in Rain Light Rain
11:15 PM 50.0 °F 48.2 °F 94% 29.61 in 4.0 mi Calm Calm - N/A Rain Light Rain
11:35 PM 48.2 °F 48.2 °F 100% 29.62 in 5.0 mi WNW 6.9 mph - N/A Rain Rain
11:55 PM 48.2 °F 46.4 °F 93% 29.65 in 8.0 mi WNW 13.8 mph - 0.01 in Rain Light Rain